RH
74 82 91 81 75 72 75 91 97 99 98 100 96 97 94 81 85 86 89 93 90 82 73 70 63 62 68 70 72 83 82 79 86 88 91 79 71 78 77 78 78 75 72 74 74 74 73 65 60 54 53 58 60 64 68 69 69 69 69 71 70 71 71 72 71 71 71 71 72 72 73 72 73 74 74 76 76 76 76 76 77 76 78 80 79 80 81 81 80 76 73 72 71 73 78 80 81
74 85 87 80 81 83 91 97 99 100 98 101 96 98 95 86 89 87 91 93 85 77 71 67 62 66 66 63 67 78 85 87 84 82 88 81 79 80 74 74 73 72 71 74 76 72 67 60 53 47 56 66 69 69 69 70 69 69 69 71 72 72 73 73 73 73 74 73 73 74 74 74 73 73 73 73 73 75 76 76 76 76 78 79 79 79 79 79 80 78 75 72 72 74 77 79 78
74 80 81 86 93 93 99 99 99 100 99 100 98 97 94 95 90 82 88 85 76 73 71 67 66 72 67 66 71 78 92 96 80 79 96 88 80 81 74 72 71 71 69 72 73 68 63 56 48 47 61 68 68 68 69 71 69 69 69 70 72 73 74 74 74 73 75 75 74 74 74 73 72 71 72 72 74 76 76 76 76 77 78 79 79 78 78 78 79 80 75 72 73 73 76 78 78
76 81 84 93 99 99 100 98 99 99 100 100 97 95 95 96 85 78 79 75 73 72 70 68 73 76 70 76 80 83 97 100 82 76 95 90 76 77 73 71 72 71 69 68 67 66 63 55 48 57 69 68 68 68 69 71 68 70 70 71 72 73 75 74 73 73 75 75 74 74 72 73 74 73 72 73 75 75 74 75 77 77 78 79 79 79 79 78 78 79 75 72 73 72 75 77 78
80 88 92 96 98 99 98 98 99 98 99 98 96 92 94 92 84 80 73 72 72 69 68 69 79 78 74 82 83 86 94 98 91 77 83 86 75 75 71 70 71 69 68 66 68 69 66 57 53 65 73 68 68 69 69 69 68 70 71 71 71 73 74 72 72 73 75 73 71 73 74 74 75 74 74 76 76 74 74 75 77 77 76 78 77 77 79 77 75 77 72 69 74 76 78 78 78
86 95 99 99 99 97 95 99 99 98 93 91 96 92 92 90 84 78 68 70 69 66 69 69 76 78 84 89 86 89 89 88 88 77 75 78 76 76 73 71 68 65 67 67 70 71 67 60 56 68 73 68 68 69 68 67 68 71 71 71 71 72 72 72 73 75 74 72 72 74 75 74 75 75 75 76 76 75 76 76 78 78 76 76 76 76 78 76 76 77 69 66 75 79 80 79 78
89 98 100 99 100 97 97 99 98 100 91 83 94 94 93 90 80 74 70 69 67 67 67 69 70 77 93 93 91 94 91 81 73 70 71 73 74 77 74 69 65 63 65 65 68 68 65 60 60 70 69 67 68 68 69 68 69 71 72 72 73 73 72 73 74 75 73 72 75 76 76 76 76 75 75 77 77 75 77 77 76 77 76 76 76 76 77 78 77 75 67 66 75 79 80 79 78
93 99 99 99 98 97 99 98 96 97 89 78 85 91 90 86 75 76 81 72 68 71 69 71 66 77 96 91 95 100 94 81 66 66 70 72 72 76 73 64 63 63 62 58 61 65 64 62 64 69 66 66 66 67 69 70 71 71 73 73 73 74 73 74 74 74 74 75 76 77 77 77 76 75 77 78 78 76 75 75 74 76 75 73 73 73 74 76 74 71 68 69 74 76 79 80 78
97 100 98 98 97 98 99 99 96 89 85 77 80 89 86 80 75 77 85 76 67 71 73 71 65 80 97 94 99 100 95 81 68 71 72 71 71 75 72 63 61 62 58 47 49 62 66 65 66 67 65 64 64 67 70 69 71 72 73 73 72 73 74 74 75 75 75 75 75 76 75 75 76 76 76 77 78 75 73 73 73 74 75 74 72 71 71 72 72 73 74 74 74 73 76 79 78
99 100 97 96 97 98 98 97 94 87 82 78 81 88 83 77 76 77 82 78 69 72 76 69 68 85 95 96 99 98 95 81 72 77 74 72 72 74 74 66 60 59 52 36 38 57 67 67 67 67 64 62 63 68 70 69 69 70 70 69 69 70 71 72 72 71 70 72 73 75 75 75 76 77 77 76 75 73 72 72 73 74 75 76 74 73 73 72 74 76 77 76 75 73 73 75 77
99 99 97 97 98 100 99 92 89 88 83 80 84 85 81 75 75 80 80 78 74 76 77 70 80 92 92 96 100 97 92 81 74 76 75 73 72 73 74 72 67 60 47 32 35 54 69 68 67 69 64 60 63 68 70 69 67 67 67 66 67 67 66 66 65 67 69 71 72 75 77 76 75 76 77 76 75 73 73 73 74 75 74 74 74 74 74 74 75 75 73 73 76 74 73 73 72
100 98 97 100 100 100 97 91 88 87 84 82 85 84 80 74 74 80 79 80 78 78 75 71 83 89 90 96 99 97 89 82 77 73 74 74 71 71 73 71 69 60 45 34 36 55 72 69 69 71 65 62 63 67 69 69 68 67 67 67 67 66 65 63 64 70 72 72 73 75 76 74 72 72 73 73 73 72 72 73 73 73 72 71 71 72 72 73 74 72 70 71 76 77 77 74 69
99 96 96 99 99 100 95 93 91 84 85 81 79 83 79 73 75 77 77 80 76 76 74 69 76 80 90 97 98 99 89 83 79 73 75 74 70 71 72 67 63 55 45 38 38 59 74 68 69 71 67 65 65 67 67 67 68 67 68 69 68 68 67 66 68 72 72 72 74 74 73 70 68 68 70 70 70 71 72 73 73 72 72 71 70 70 71 71 69 68 68 70 74 78 79 78 76
97 91 92 96 98 101 93 90 88 81 83 79 78 81 76 73 72 70 73 81 76 72 73 69 72 79 94 99 99 100 90 84 79 75 77 76 72 73 75 71 64 53 48 44 42 61 71 66 68 70 67 64 66 68 67 66 66 67 70 69 69 70 70 71 72 71 71 73 75 73 69 66 65 67 69 69 70 73 73 72 74 75 74 74 73 72 71 69 66 66 67 69 72 76 79 78 79
96 89 90 96 98 98 87 84 83 78 77 73 80 77 75 78 69 67 71 78 79 71 72 74 71 76 89 95 98 98 87 82 79 77 79 78 77 79 80 78 71 59 55 49 48 60 64 62 64 65 61 57 63 66 66 66 64 67 70 69 70 72 73 74 73 71 71 73 74 71 67 64 65 68 68 68 69 72 73 73 74 75 75 75 75 74 73 70 67 66 67 71 73 75 77 76 76
96 92 93 97 98 94 84 80 76 74 70 69 78 72 78 85 69 68 71 72 78 73 71 73 69 69 78 84 91 90 81 79 79 79 80 80 81 83 82 79 74 65 59 53 52 59 58 58 58 57 52 50 57 62 64 63 61 65 67 68 70 72 73 74 74 72 73 74 72 69 66 63 63 67 68 67 68 70 73 75 74 74 75 73 72 73 72 70 69 69 71 74 74 74 75 76 75
96 96 97 97 96 94 84 76 69 65 65 70 76 68 78 87 73 71 73 70 75 75 71 70 70 67 71 76 80 82 77 78 81 81 82 84 85 87 87 84 81 71 64 60 57 57 55 54 50 48 45 44 52 56 58 57 59 59 56 60 66 70 72 74 76 74 75 76 73 70 66 62 62 64 65 65 67 68 71 75 76 77 77 74 71 70 69 68 69 70 73 75 75 74 74 74 75
95 97 97 96 95 90 76 68 60 53 59 71 75 67 72 82 79 74 74 75 75 75 74 72 72 70 72 71 72 78 78 80 83 83 86 89 87 90 91 89 83 69 66 68 60 55 55 49 43 42 40 41 45 46 50 53 56 51 45 50 56 62 66 70 75 74 74 75 74 70 64 62 61 61 61 61 61 66 71 73 76 78 78 77 76 75 73 72 71 72 72 73 73 73 72 71 73
89 90 95 95 89 79 64 60 55 45 54 70 71 65 66 73 77 74 75 82 76 77 79 75 77 79 78 72 71 78 80 82 83 82 86 90 87 87 89 89 79 64 68 71 59 55 53 44 39 39 37 38 39 38 42 46 48 45 42 45 48 52 55 59 67 70 70 71 71 68 65 62 58 58 61 60 57 62 69 72 75 77 76 75 77 77 77 76 75 77 74 70 68 68 69 69 71
83 84 96 91 79 72 59 58 57 45 51 67 68 61 63 68 71 71 74 81 77 78 82 79 84 87 82 76 76 81 82 83 83 81 85 89 85 82 84 85 75 62 65 65 55 54 48 39 36 38 36 35 36 36 37 39 40 41 42 44 45 45 46 49 55 61 65 66 66 66 67 63 57 57 59 57 56 58 62 68 72 71 71 72 74 74 75 76 76 78 76 71 68 66 67 68 69
81 85 92 79 68 70 61 56 56 48 48 60 65 60 63 68 68 68 71 83 83 76 76 75 79 83 81 79 78 80 85 85 83 81 83 86 83 79 78 77 69 59 61 59 52 50 44 35 34 37 36 34 34 35 35 36 37 39 41 42 43 43 43 45 50 58 62 62 62 64 65 61 58 57 55 53 53 55 55 60 66 66 67 70 73 75 74 74 74 75 74 72 71 69 68 68 68
76 80 80 72 66 68 60 50 48 47 47 54 61 59 62 67 67 68 68 77 79 72 72 70 71 74 71 73 76 79 85 85 82 80 78 81 81 76 73 69 62 58 61 57 46 45 42 33 33 36 36 35 34 34 35 36 37 38 39 42 45 45 44 43 50 60 63 63 65 63 61 59 58 57 56 55 53 53 52 54 60 65 67 69 75 78 77 76 77 75 73 71 71 71 70 69 68
75 73 66 68 69 68 63 52 48 47 47 53 58 56 58 65 67 67 64 64 64 64 71 71 71 71 62 63 73 79 83 82 78 74 72 74 76 71 67 62 58 57 58 50 40 42 40 32 33 35 36 36 35 34 35 35 36 37 38 41 45 48 49 45 50 61 63 64 66 65 62 62 60 56 55 55 53 51 50 52 59 67 68 68 76 80 78 79 81 80 78 75 71 70 70 69 67
70 70 59 59 59 60 60 54 51 47 46 48 51 53 56 62 64 65 63 59 57 60 69 71 71 71 65 63 69 74 79 81 78 75 71 72 73 67 63 59 56 55 52 44 37 39 37 31 31 33 35 36 36 35 34 35 36 36 37 39 42 47 52 51 50 58 63 63 65 65 63 63 61 59 61 60 57 53 51 53 60 70 71 69 74 79 78 81 85 84 83 80 74 70 70 69 67
60 65 58 53 50 49 49 46 45 44 44 44 47 51 53 55 57 61 63 58 57 60 67 72 71 73 72 68 68 72 80 85 85 82 77 77 78 74 67 61 59 57 49 39 34 36 34 30 30 31 33 35 36 36 34 35 36 35 35 36 39 42 50 56 55 55 60 63 64 64 62 63 64 64 69 69 65 62 59 58 64 72 75 72 73 78 79 80 84 85 84 83 77 72 71 70 69
53 56 54 49 47 45 43 41 39 39 42 43 46 49 49 51 51 55 58 58 58 60 67 71 72 75 77 75 70 72 79 84 84 80 78 79 79 75 68 61 59 56 47 37 32 35 32 28 29 30 31 33 34 36 35 35 35 35 33 34 36 37 43 53 58 58 59 63 65 66 64 63 67 68 72 72 68 70 69 69 70 73 76 77 75 77 79 79 82 84 84 84 80 76 72 69 69
46 47 48 46 45 42 40 40 37 38 41 41 46 48 45 47 49 51 52 56 59 62 69 72 73 76 78 79 75 74 77 80 80 79 81 83 79 73 66 62 59 54 48 38 31 32 32 28 28 29 30 32 32 34 34 34 34 34 33 33 33 35 40 46 56 61 60 62 66 70 69 66 68 70 73 74 72 72 74 75 75 76 77 77 77 79 80 78 79 81 82 83 81 79 76 71 68
40 40 40 39 39 38 37 39 38 38 40 39 42 44 42 44 48 48 48 55 58 62 71 73 75 77 79 81 80 79 80 81 84 84 81 77 71 66 62 58 56 53 47 36 28 29 30 28 28 28 29 31 31 32 33 33 33 34 34 33 31 33 40 43 50 59 62 63 66 71 73 73 72 69 72 75 75 75 75 75 76 79 79 77 76 78 80 77 77 79 80 81 80 80 80 75 69
35 34 38 37 35 36 36 36 36 36 39 36 39 46 46 47 47 44 47 56 58 63 73 76 77 79 82 83 83 82 82 84 88 85 75 66 60 56 52 49 49 47 42 37 31 28 28 27 27 28 29 30 30 30 31 32 32 33 33 33 32 31 36 43 47 54 63 65 67 72 74 76 76 71 72 75 76 77 76 74 74 78 79 77 76 75 77 76 76 76 77 80 82 82 82 78 72
33 32 36 38 40 41 36 33 34 35 37 33 40 54 55 48 44 46 52 59 63 69 76 79 80 81 84 85 85 84 83 85 86 82 75 66 60 54 49 47 46 44 42 41 36 29 27 27 27 27 29 30 29 29 30 30 31 32 33 32 33 31 32 42 47 51 62 66 68 74 74 75 78 73 72 76 74 75 77 75 75 78 77 74 75 76 76 76 75 73 75 79 82 83 82 78 74
35 35 37 40 49 51 37 32 33 34 37 33 39 56 56 45 45 52 57 59 64 74 79 79 81 82 85 86 85 85 84 84 83 82 78 71 65 59 54 51 48 47 45 43 39 32 28 26 27 27 27 29 29 29 28 30 31 31 32 31 31 31 29 39 49 52 61 67 67 73 74 74 78 75 74 76 74 73 75 75 76 78 77 73 75 78 77 77 77 77 79 81 81 81 80 77 75
34 41 48 47 50 51 36 31 33 34 37 35 40 55 52 41 47 58 61 61 64 72 78 79 81 82 84 86 86 86 84 83 84 85 82 77 71 63 56 52 49 49 47 45 42 38 33 28 27 26 26 28 28 29 28 29 31 31 32 30 29 31 29 35 47 55 62 67 65 68 73 74 77 77 76 76 74 74 73 74 76 77 79 77 76 78 80 80 78 79 82 83 82 80 79 78 76
38 41 49 48 49 49 39 32 30 31 38 40 41 50 51 43 49 60 62 63 65 71 77 78 80 81 82 85 84 85 86 86 87 88 86 83 76 65 56 50 48 49 48 47 45 40 35 29 27 26 25 26 27 28 29 29 31 31 30 29 29 30 30 31 44 59 66 67 66 65 69 74 75 75 75 73 72 74 75 76 77 78 81 79 75 75 79 83 80 79 81 83 85 83 80 80 78
44 40 40 41 43 44 41 33 27 31 39 43 41 44 48 46 52 61 63 64 66 70 75 77 79 80 81 83 83 83 85 86 87 87 87 85 79 68 57 50 48 50 50 49 47 43 37 33 31 29 26 26 27 28 29 29 30 30 30 30 29 30 30 29 39 60 68 68 69 68 68 70 70 68 70 70 68 70 75 79 79 79 81 79 78 75 75 83 83 78 80 82 83 82 82 81 80
45 43 40 38 35 35 37 31 28 35 40 43 45 45 44 45 53 61 62 63 65 68 72 75 77 78 79 81 80 81 83 84 83 83 85 84 80 71 60 53 51 51 50 49 50 47 43 39 36 35 32 29 28 28 28 29 29 31 32 32 31 31 32 30 34 54 69 69 70 72 72 72 68 64 64 65 65 65 69 75 77 77 81 82 82 78 74 81 84 77 78 81 78 78 80 79 78
41 40 38 38 34 33 33 27 27 36 42 43 46 47 43 44 55 60 60 63 63 65 69 72 75 76 77 78 78 79 80 80 79 81 84 84 81 75 67 62 59 58 55 53 54 53 49 44 40 40 40 37 35 34 33 31 31 32 34 33 32 32 34 33 31 47 66 68 67 73 78 77 75 70 63 60 60 60 62 68 71 74 80 83 82 79 76 81 86 79 75 80 78 77 79 77 76
34 34 33 34 33 32 30 26 23 31 42 45 43 45 42 42 53 58 58 62 63 64 68 70 73 74 75 76 75 76 78 77 78 82 84 84 83 79 75 70 65 64 62 58 57 55 52 48 45 43 43 44 43 40 38 34 31 32 35 34 32 32 36 38 36 46 62 66 66 72 79 82 81 76 66 59 56 55 57 61 65 70 76 82 81 79 78 79 85 82 75 77 79 77 76 74 74
31 33 33 32 33 31 28 24 22 26 36 42 41 44 43 42 50 56 57 61 62 63 66 68 70 72 74 75 75 75 76 77 79 81 83 84 85 83 80 74 67 65 63 60 58 56 55 53 50 46 46 47 45 43 41 37 30 31 35 34 31 31 35 40 42 48 57 63 64 68 76 84 83 78 70 63 58 54 54 57 60 66 72 79 82 80 78 77 80 83 77 74 77 79 74 69 71
33 35 34 34 32 29 27 23 21 23 29 37 40 43 43 40 46 54 57 59 59 59 62 65 67 70 72 73 74 74 76 78 79 80 81 82 83 83 83 79 72 67 63 61 60 60 59 58 55 52 49 48 46 45 44 40 34 35 40 39 34 32 34 41 47 53 58 61 61 62 71 80 81 77 72 65 59 53 52 54 57 63 68 75 81 81 79 77 78 81 79 73 74 80 76 67 67
35 35 37 36 31 27 29 27 22 21 25 33 39 41 42 40 43 53 56 55 56 56 58 60 63 66 68 70 72 73 74 76 78 79 79 81 82 82 82 79 76 72 69 65 63 63 63 61 59 56 53 50 47 47 46 43 41 43 47 46 41 36 35 42 51 59 63 62 59 58 63 73 77 75 71 65 59 54 52 53 55 60 64 70 78 81 80 79 80 80 78 73 71 76 77 70 66
36 34 36 36 30 26 28 28 24 23 24 27 32 35 40 42 43 51 55 54 55 55 57 58 60 62 64 66 69 71 72 73 75 77 78 79 80 80 79 78 77 76 72 68 65 65 65 63 62 60 58 56 53 50 48 47 47 47 49 51 49 42 40 46 53 59 61 59 58 56 58 67 73 73 71 67 61 56 53 52 54 57 60 66 72 76 78 79 81 79 76 72 69 71 74 71 66
39 34 32 32 29 26 25 25 23 27 31 28 26 30 41 49 47 46 51 57 58 55 57 58 58 60 62 64 66 68 69 70 71 72 74 76 78 78 78 77 77 75 71 68 67 66 65 64 63 62 63 63 60 54 50 50 49 48 50 54 52 45 42 46 51 54 53 51 52 54 57 64 70 72 73 72 66 60 55 52 52 55 58 61 65 71 76 77 77 77 76 75 71 69 69 68 65
41 35 30 29 28 26 25 24 25 34 39 32 26 30 43 54 51 44 48 58 60 57 57 58 57 59 60 61 63 65 66 68 69 69 71 74 76 77 77 76 73 71 68 68 69 67 64 63 62 63 64 65 63 58 52 51 50 52 54 56 53 45 40 40 45 49 48 46 48 51 56 62 68 71 74 76 73 67 60 54 51 52 56 59 61 66 72 75 74 76 77 77 75 71 66 62 60
39 33 30 30 28 27 26 25 27 34 35 29 27 30 38 47 46 43 47 55 60 60 59 57 56 57 59 60 60 62 63 64 65 67 69 70 72 74 74 74 71 69 69 70 70 67 64 63 63 64 65 65 64 61 55 51 53 57 57 56 53 45 40 39 43 48 49 49 51 52 55 59 65 69 73 76 77 73 66 57 51 50 53 56 58 61 68 73 75 75 75 76 76 73 70 65 59
35 28 28 29 28 28 27 27 29 30 30 32 30 28 35 47 49 43 45 53 57 60 59 56 56 56 57 58 59 59 61 62 62 63 65 66 67 69 69 71 72 71 71 70 68 66 65 64 64 64 66 66 65 64 61 56 56 61 57 50 48 45 42 41 45 50 51 51 52 54 56 58 61 66 70 72 74 74 69 61 55 51 51 53 55 58 64 71 74 74 73 73 74 73 73 73 67
30 26 25 25 25 26 27 29 29 28 33 37 33 28 32 44 46 39 42 51 53 53 54 52 53 54 55 56 57 57 58 60 61 60 61 63 64 65 67 69 71 72 71 70 69 67 67 66 66 66 65 66 66 66 65 61 59 62 59 51 45 44 44 44 47 52 55 54 54 54 54 54 57 60 64 67 69 70 68 63 58 54 52 53 54 56 62 69 72 72 71 71 73 73 71 70 67
27 27 25 26 31 30 30 32 30 32 37 34 29 28 30 36 38 34 36 44 45 45 48 48 49 51 53 54 55 56 57 58 59 59 59 61 63 64 66 68 69 70 71 72 71 69 69 68 67 67 66 65 66 66 65 63 62 63 62 56 49 45 46 47 49 53 56 57 55 52 50 50 52 55 59 62 64 64 64 61 57 55 54 53 53 55 60 67 69 69 70 69 69 71 70 67 63
27 30 29 34 41 35 33 36 34 37 41 33 27 27 30 34 34 32 32 36 38 39 41 44 45 47 50 52 53 54 55 56 57 59 59 60 62 64 65 67 68 69 71 72 72 71 71 69 67 67 67 66 66 65 65 64 64 63 64 61 56 52 50 50 50 52 53 53 53 51 49 48 49 52 55 56 57 58 60 59 56 54 53 53 53 55 58 65 68 69 69 68 68 69 69 67 63
31 34 36 45 50 43 44 47 43 43 45 38 30 27 31 32 27 26 32 35 36 35 35 37 39 42 46 48 51 52 53 54 56 57 58 58 59 61 63 65 67 69 70 71 73 73 73 71 69 68 67 66 66 66 65 66 65 64 64 64 62 60 57 54 52 53 52 50 50 51 49 47 47 48 50 49 50 56 59 58 55 51 50 50 52 54 57 62 66 68 68 67 67 69 69 66 64
34 36 41 49 54 54 57 56 50 48 47 38 29 30 35 33 24 20 24 30 33 32 31 32 34 37 41 44 47 50 51 52 54 56 57 57 57 58 60 63 65 67 68 70 71 72 73 72 71 69 66 65 65 66 66 66 66 64 63 64 64 64 62 58 54 53 51 49 48 49 48 45 44 44 46 46 48 53 58 57 55 51 48 49 51 52 55 59 64 65 66 67 67 67 69 68 66
32 32 36 42 49 57 60 57 53 49 46 37 29 34 37 32 30 24 18 19 24 28 29 29 31 33 36 40 44 47 50 50 52 54 55 56 56 57 58 60 62 64 66 68 69 70 71 71 69 67 66 65 65 65 65 66 65 64 64 64 65 66 65 61 57 54 52 49 47 48 48 46 44 43 44 46 47 50 53 54 53 51 48 47 48 50 52 56 61 63 63 65 66 66 67 67 68
31 28 33 38 41 46 49 53 50 40 39 35 30 38 39 31 29 25 18 18 19 23 28 29 31 32 33 38 41 44 48 48 51 52 53 54 55 56 58 59 61 63 64 66 67 68 69 69 68 66 64 64 64 64 64 64 64 65 66 66 65 66 66 64 60 56 54 50 48 48 48 47 45 44 44 45 46 47 49 50 50 48 47 45 45 47 49 52 57 61 61 62 62 64 65 65 66
34 32 36 34 28 30 39 48 42 31 35 37 30 31 29 23 22 17 15 21 21 23 28 29 31 33 33 36 38 41 44 46 49 50 51 53 55 55 56 57 59 61 62 64 65 66 66 66 66 65 64 64 64 63 63 63 63 65 66 67 66 64 65 64 59 55 53 51 50 49 49 49 47 46 45 44 45 45 46 47 48 47 47 45 43 44 46 48 52 58 60 60 60 61 63 63 65
34 36 32 26 25 28 34 41 40 35 41 44 35 29 23 22 28 24 17 20 23 23 28 30 32 34 35 36 36 38 41 43 45 47 49 52 54 54 55 56 57 58 60 61 63 65 66 65 63 62 63 63 63 63 64 64 63 63 65 66 65 63 61 59 55 54 54 55 54 51 50 49 47 46 45 44 44 44 44 46 46 46 46 46 44 43 45 47 47 51 55 58 60 61 62 62 63
27 31 26 27 36 36 35 42 45 45 47 44 37 32 27 25 28 25 17 18 21 23 28 32 33 35 36 35 35 37 38 40 42 45 48 51 52 53 54 56 56 57 59 60 62 65 66 66 63 60 58 58 59 62 64 65 63 62 63 64 64 62 59 56 54 55 56 56 55 53 51 48 46 45 45 44 43 42 43 43 44 44 44 45 44 43 45 47 46 45 48 52 55 59 60 60 61
21 24 24 28 35 35 37 40 41 45 50 44 33 29 30 29 25 18 15 17 18 20 26 31 32 34 34 33 34 36 38 39 41 43 46 49 50 50 51 53 55 56 59 60 62 65 66 67 66 62 59 57 58 60 62 64 64 63 63 64 65 64 60 56 54 54 55 53 52 52 51 48 46 45 45 44 43 42 41 39 38 40 41 41 42 42 43 45 46 44 44 45 48 52 56 57 59
32 31 28 28 27 29 33 32 31 38 48 45 33 30 33 33 26 16 13 15 16 18 23 27 29 30 31 32 33 34 37 38 39 40 43 45 47 48 49 51 54 56 59 61 62 64 65 66 67 65 62 60 58 59 60 62 62 63 65 65 65 64 61 59 57 55 53 50 50 51 50 49 48 46 45 44 43 41 41 38 35 36 38 39 40 40 41 43 45 44 44 44 44 46 49 51 54
41 41 36 30 26 29 35 36 30 28 38 45 38 34 34 31 24 16 12 13 13 15 19 23 26 27 28 30 30 32 34 36 37 38 39 42 45 47 48 51 55 56 58 60 61 62 64 65 66 66 64 61 58 58 59 60 60 62 63 63 63 63 61 60 59 58 54 50 49 48 48 50 50 47 46 45 42 41 40 39 36 34 36 39 39 39 40 42 43 44 44 45 45 45 45 47 49
Wind_Speed
9 11 12 9 10 11 11 8 2 1 1 2 2 1 2 2 1 1 3 2 1 4 9 15 23 19 7 5 7 8 8 7 3 2 3 14 31 32 31 33 31 31 30 29 28 26 25 24 21 20 19 18 17 16 17 16 16 16 17 17 16 16 15 15 15 15 14 14 13 13 13 12 12 11 11 10 10 10 9 9 9 9 9 10 10 9 9 9 10 10 10 10 10 11 10 11 11
10 12 13 10 12 10 7 8 1 1 1 2 2 2 1 0 1 2 3 3 3 8 13 22 23 13 9 12 12 10 9 4 3 7 14 29 36 31 33 32 32 32 31 30 28 27 26 24 22 20 19 18 17 17 17 17 16 17 17 17 17 16 16 15 15 15 15 14 14 13 13 12 11 11 10 10 10 9 9 9 9 8 9 9 9 9 8 9 10 11 10 10 10 10 10 11 11
11 12 14 12 13 8 3 5 1 1 1 2 3 2 2 1 1 1 2 5 10 15 19 23 17 9 12 13 8 5 4 3 9 17 24 35 37 34 34 32 32 32 30 30 28 28 26 24 22 20 19 17 17 17 18 17 16 17 16 17 16 16 15 15 15 15 14 14 13 13 12 12 12 11 11 10 10 10 9 9 9 8 9 9 9 9 9 9 10 11 11 10 10 10 10 11 11
12 11 12 12 11 7 2 1 1 1 2 2 3 2 1 1 1 3 3 12 19 21 20 19 10 6 8 8 6 5 6 6 13 25 30 34 36 37 35 33 33 31 31 30 30 28 25 23 22 20 19 17 17 17 17 17 16 16 16 16 16 15 15 15 15 14 14 13 13 13 12 12 12 11 11 11 10 10 9 9 9 9 9 9 9 9 9 10 10 11 11 10 10 11 10 10 11
12 11 10 9 6 2 1 0 1 1 3 2 2 2 2 2 1 3 7 16 19 20 19 15 7 5 8 7 5 4 8 11 17 28 35 35 35 37 36 34 32 32 32 30 30 27 25 23 21 20 19 17 17 17 17 17 16 16 16 16 15 14 14 14 14 14 13 13 12 12 12 11 11 11 11 11 11 10 9 9 9 9 9 9 9 9 10 10 10 11 11 10 10 11 10 10 11
14 11 9 8 3 1 1 1 1 2 4 3 2 3 2 2 2 1 11 15 13 16 16 12 9 10 9 7 6 7 12 13 21 31 37 37 36 37 36 35 33 33 32 30 29 26 25 22 21 20 19 18 17 17 17 17 16 16 15 14 14 14 14 14 13 13 13 12 12 12 11 11 11 11 11 11 12 11 10 9 9 10 10 10 10 10 10 10 10 11 11 10 9 10 10 10 10
14 11 9 8 4 2 1 2 3 3 4 4 3 2 2 2 3 3 9 9 9 12 12 13 16 13 6 4 8 9 7 7 26 36 37 38 37 37 36 36 34 33 32 30 28 26 24 22 22 20 18 18 17 17 17 17 16 15 15 14 14 13 14 13 13 12 12 12 11 11 11 11 11 11 11 12 12 12 10 10 10 10 10 10 11 10 10 10 10 11 11 9 9 10 10 10 10
13 8 6 4 1 1 1 2 3 3 3 2 2 1 3 5 5 3 4 4 6 7 11 16 16 9 3 4 6 5 5 10 31 38 37 39 37 37 36 37 34 33 32 30 28 25 24 22 21 19 19 18 17 17 17 17 16 15 14 13 13 13 13 13 13 12 12 11 11 11 11 11 11 11 11 12 12 11 11 11 10 11 10 10 10 10 10 10 10 11 11 9 8 9 10 10 11
13 5 2 0 1 0 2 2 3 3 3 2 1 1 5 6 5 4 4 3 6 8 13 15 10 6 6 9 9 7 10 18 34 38 38 38 37 37 36 36 34 33 32 30 28 25 23 21 20 19 19 18 17 18 17 17 16 15 14 13 13 12 13 12 12 12 11 11 11 11 11 12 11 11 12 12 12 12 11 11 11 11 11 10 10 9 10 10 10 10 10 9 8 8 9 10 10
11 5 1 1 0 1 2 2 3 3 3 3 2 3 7 8 7 6 5 5 8 10 9 10 8 10 11 10 9 9 12 23 36 38 38 38 37 37 36 36 34 33 33 31 28 25 23 21 21 19 18 18 17 18 17 17 16 15 14 13 13 12 12 12 12 11 11 11 11 11 12 12 11 11 12 12 12 12 12 11 11 12 12 11 9 9 9 9 10 10 9 9 8 8 8 8 9
7 4 2 0 1 1 2 3 3 3 2 1 0 5 9 9 10 7 7 7 9 11 10 9 9 14 13 8 8 9 13 26 38 39 39 38 37 36 36 35 33 32 33 31 27 25 23 21 20 19 18 18 17 18 17 16 16 16 15 14 13 13 12 12 12 12 12 12 12 12 12 12 12 12 12 12 12 12 12 11 12 12 12 11 10 10 10 9 9 9 9 9 9 8 9 8 9
4 2 1 1 2 2 3 2 4 3 0 1 1 5 9 11 9 6 7 8 9 10 10 10 12 15 10 5 10 12 16 27 38 40 39 38 37 36 35 34 32 31 32 30 27 25 23 22 21 19 18 17 17 17 17 16 16 16 15 14 14 14 13 13 13 13 13 13 13 13 13 12 12 12 12 13 13 12 12 11 11 11 12 11 11 10 10 10 9 9 9 9 9 9 9 9 9
4 2 2 1 2 2 2 2 3 2 0 2 3 5 9 10 7 9 10 9 11 9 6 10 18 15 7 7 14 17 20 30 38 40 39 38 37 36 34 33 31 31 31 29 28 26 23 23 22 19 18 17 17 17 16 16 16 16 15 15 15 14 14 13 13 13 13 13 13 13 13 13 13 13 13 13 13 12 11 12 11 11 11 11 11 10 10 10 9 8 9 9 9 9 10 10 10
4 1 2 1 1 1 2 2 2 1 2 1 6 9 10 7 7 14 14 10 7 6 6 13 20 13 9 11 14 21 26 33 39 40 40 38 37 36 34 32 31 31 30 29 28 26 25 23 22 20 19 18 17 17 16 16 16 16 15 15 15 14 14 13 13 13 13 12 13 13 13 13 13 13 13 12 12 11 11 11 11 10 10 10 10 10 10 9 8 8 8 9 9 9 10 10 10
6 1 1 1 2 2 1 3 2 2 2 1 8 13 10 4 9 14 14 11 3 9 12 14 19 8 10 13 14 28 32 36 40 39 40 38 37 35 33 32 30 31 29 28 28 27 25 24 23 21 20 19 18 18 17 17 16 16 16 15 15 15 14 14 13 12 12 12 12 13 13 13 13 12 12 12 11 11 11 11 11 10 9 9 9 9 9 8 7 7 8 9 10 10 10 10 10
9 1 1 1 2 1 2 2 2 2 3 3 11 15 10 4 10 11 11 11 9 16 12 14 17 2 12 17 18 35 36 39 41 39 40 38 37 34 33 32 30 31 29 28 28 26 25 24 23 22 21 20 19 19 18 18 16 16 16 15 15 15 14 14 14 12 12 12 12 12 13 13 13 12 11 11 11 10 10 11 10 9 8 8 8 8 7 7 7 8 9 9 10 10 10 10 10
9 4 1 2 2 1 2 3 2 2 2 5 12 15 9 4 8 10 10 11 16 18 7 13 12 4 15 18 24 39 38 41 41 39 40 37 37 34 32 32 30 30 29 28 27 27 25 24 24 22 22 20 20 19 19 18 17 16 16 16 15 15 15 14 14 13 13 12 12 12 12 13 13 12 11 10 10 10 10 9 9 8 8 8 8 8 7 7 8 9 9 9 9 10 10 10 10
7 3 2 3 2 3 3 3 3 2 3 6 12 14 11 7 8 12 10 10 17 14 7 13 6 4 16 17 29 40 38 43 41 40 39 36 37 35 34 32 31 32 30 29 27 27 26 25 24 23 22 21 20 19 19 19 18 17 17 16 16 15 15 15 14 13 13 12 12 11 11 12 12 12 11 9 9 9 9 8 8 7 7 7 7 8 8 8 8 9 10 9 9 10 10 10 10
7 2 2 4 3 4 4 3 4 2 3 7 11 14 12 11 15 16 9 8 15 9 7 13 12 14 18 22 36 39 40 43 40 41 39 37 38 37 36 33 33 34 32 30 29 28 27 26 25 24 23 22 21 20 20 20 19 19 18 17 16 16 15 14 14 13 13 12 11 11 11 10 10 10 9 9 9 8 8 8 7 6 6 6 6 6 7 7 8 8 9 10 10 11 11 11 10
7 4 2 6 5 5 8 8 9 5 6 9 10 12 10 14 20 18 9 8 11 8 10 14 18 23 24 31 39 39 41 42 39 41 38 37 38 38 38 36 36 36 33 31 30 29 28 28 26 25 24 23 22 21 20 19 19 18 17 17 16 15 15 14 13 12 12 12 11 11 11 10 10 9 9 9 8 7 8 8 6 5 6 6 6 6 6 6 7 7 8 10 11 11 10 10 10
6 7 4 4 3 5 10 10 12 9 6 11 12 9 8 16 21 18 14 9 4 10 19 20 24 29 32 38 40 41 42 40 40 40 39 38 38 39 38 37 37 36 34 32 31 31 30 29 27 26 25 24 23 21 20 19 18 18 16 16 15 15 14 13 13 11 11 11 11 11 11 10 9 8 8 8 8 7 6 7 7 6 5 6 6 5 5 5 6 7 7 8 9 10 9 9 9
5 9 9 8 4 3 8 7 9 8 6 10 12 8 9 16 16 18 19 10 7 18 26 25 28 32 35 42 42 42 41 41 42 40 41 39 39 40 38 38 37 36 35 33 33 32 31 30 29 27 26 25 24 22 20 18 18 17 16 15 14 14 13 13 13 11 11 11 10 10 10 9 8 7 7 7 7 7 6 6 7 6 5 5 5 5 5 5 5 6 6 7 7 9 9 8 8
5 8 11 14 12 9 11 8 9 7 4 9 11 11 15 15 10 18 23 15 11 18 25 25 27 30 35 43 44 43 43 43 43 42 43 41 41 41 40 40 38 38 36 34 34 33 32 31 30 28 27 26 25 23 21 18 17 16 15 14 14 13 12 13 13 12 11 10 10 10 9 8 8 7 6 6 7 8 8 7 6 6 5 4 4 4 4 5 5 6 5 5 6 7 7 7 7
8 6 9 13 14 16 19 14 15 12 7 9 10 11 16 15 9 16 23 19 10 11 22 25 26 30 36 43 45 44 44 43 43 42 41 41 41 41 40 40 38 38 37 36 35 34 34 33 31 30 28 27 25 23 21 19 17 15 15 14 14 13 12 12 12 12 11 10 10 9 9 9 8 8 7 6 7 8 8 7 6 5 5 4 4 4 4 5 5 5 5 5 6 6 6 6 6
11 11 10 9 12 17 18 15 16 15 13 9 9 9 16 20 13 14 21 18 11 13 22 25 26 31 37 42 44 44 42 40 39 39 39 39 38 38 39 39 39 38 38 37 36 35 34 34 32 31 29 27 26 24 22 20 17 16 15 14 14 13 11 11 12 12 11 11 10 9 9 9 9 9 7 6 7 7 7 6 5 5 4 3 4 4 4 4 4 5 5 5 7 7 6 5 4
13 17 12 8 12 14 14 14 15 14 14 12 8 7 15 20 13 9 18 18 14 17 23 26 30 34 37 41 43 45 43 41 40 40 39 38 38 38 39 40 40 39 39 38 36 35 35 34 33 31 30 28 27 25 23 21 18 16 14 13 13 12 11 11 11 12 11 11 10 10 10 10 9 9 7 6 6 7 7 6 5 4 3 3 3 3 3 3 4 5 5 5 7 8 6 6 5
10 14 13 15 18 17 16 16 17 14 13 15 12 7 11 18 13 5 14 21 20 22 26 29 32 35 38 40 42 44 43 43 42 41 39 38 39 40 41 41 41 40 39 38 37 35 35 35 34 32 31 29 28 26 24 22 19 17 14 13 12 11 11 10 10 11 11 11 10 10 10 10 9 9 8 6 6 6 6 6 5 4 3 3 3 3 2 3 3 3 4 4 5 7 7 6 6
11 10 9 15 16 16 17 15 19 14 8 16 17 8 5 11 12 6 15 26 26 28 30 32 34 36 38 39 41 42 42 42 40 40 41 42 43 43 43 43 42 41 40 39 38 36 35 35 34 33 32 30 29 27 25 23 20 18 15 13 11 10 11 10 10 10 10 11 11 11 10 10 9 9 8 7 6 6 6 6 5 4 3 3 3 3 2 2 3 3 3 4 4 6 8 8 8
15 10 7 10 8 10 13 12 17 11 7 16 17 5 3 8 9 10 22 30 30 31 33 34 35 36 37 39 39 40 41 41 40 41 44 45 46 46 45 44 43 42 41 39 38 37 36 35 35 34 32 31 29 27 25 24 22 19 17 14 12 11 11 10 10 9 10 11 11 11 10 10 9 9 8 7 7 7 6 6 6 5 3 2 3 3 2 2 3 3 3 4 4 5 7 9 9
12 7 5 7 5 8 9 10 13 10 8 14 14 3 6 7 9 16 27 32 32 31 32 34 34 35 36 38 39 39 40 41 42 43 44 45 45 46 46 44 43 42 41 39 38 38 37 36 35 35 34 32 30 28 26 25 23 21 18 16 14 12 12 11 10 10 10 11 11 11 11 10 9 9 8 7 7 7 6 6 6 5 3 2 2 2 2 3 3 3 3 4 4 4 5 8 10
4 4 4 3 2 5 5 6 9 7 8 17 17 4 7 6 8 21 30 34 34 30 30 33 33 34 36 38 39 39 40 42 43 44 43 44 44 45 45 45 44 42 41 40 39 38 37 37 36 36 35 33 31 29 28 26 24 22 19 17 15 14 13 12 11 11 11 11 12 11 11 11 10 9 8 7 7 6 6 6 6 5 3 2 2 2 3 3 3 3 3 3 4 4 5 7 9
1 4 4 3 4 6 6 4 9 8 6 17 16 4 7 5 8 24 31 35 35 30 30 32 33 34 35 38 38 39 40 41 41 42 42 43 43 44 45 45 44 43 42 41 40 39 38 37 37 36 36 34 33 31 29 27 25 23 21 18 17 16 15 13 12 12 12 12 13 12 12 11 11 9 8 7 6 6 6 5 5 4 3 2 1 2 2 2 3 3 3 3 4 5 5 7 8
2 3 4 2 5 6 7 3 9 11 5 11 13 4 4 3 11 26 30 34 33 28 29 31 34 35 36 37 38 38 39 39 40 41 42 43 43 44 45 45 45 44 42 41 40 40 39 38 37 37 36 35 34 32 30 28 26 24 22 20 18 17 17 15 13 13 13 14 14 13 12 12 11 10 8 7 6 6 6 5 5 4 4 3 2 3 2 3 3 4 5 4 5 6 6 7 7
3 2 4 3 5 5 4 4 6 10 6 7 11 8 5 4 12 24 29 34 31 26 28 31 33 34 36 37 37 38 39 41 43 44 43 43 43 43 44 45 45 44 43 42 41 40 40 39 38 38 37 36 34 33 31 29 27 25 23 21 20 19 19 17 15 15 15 15 14 14 13 12 11 10 9 8 7 6 6 6 5 5 5 4 3 3 3 3 4 5 6 6 6 6 6 6 7
4 4 3 3 4 5 4 3 3 6 7 8 10 10 9 4 9 21 29 33 30 28 30 32 33 34 35 36 37 38 40 43 46 47 45 43 43 43 44 44 44 44 43 42 41 41 40 39 39 38 37 36 35 34 33 31 29 27 25 23 22 21 21 20 18 17 17 16 15 14 13 12 11 10 10 10 8 7 6 6 6 5 5 5 4 4 4 4 4 4 5 7 7 6 5 5 7
6 5 4 4 4 5 5 4 3 4 5 7 9 11 11 6 8 16 25 32 30 28 28 29 31 32 33 35 37 38 41 45 47 46 44 43 43 43 43 43 43 43 43 43 42 41 41 41 40 39 38 38 36 35 34 33 31 29 27 25 25 24 23 22 21 20 19 18 16 15 14 13 11 11 11 11 10 9 7 7 7 6 6 5 5 4 4 4 4 5 6 8 8 6 4 3 6
3 3 3 4 5 5 5 3 4 4 4 7 9 11 12 9 9 14 23 28 23 21 23 25 28 31 33 36 37 39 43 44 43 42 43 43 43 43 42 43 43 43 43 43 43 42 42 41 41 40 40 39 38 37 36 35 34 32 30 29 27 25 24 23 22 22 22 20 17 15 15 13 12 11 11 11 11 10 9 8 8 7 6 5 4 4 4 5 5 6 6 8 8 7 5 4 7
4 1 2 4 5 5 6 4 3 2 3 5 7 9 11 9 9 13 20 20 17 21 24 25 30 32 34 37 39 41 41 38 37 39 42 43 43 43 42 43 43 44 44 44 44 43 42 41 41 41 40 40 39 38 37 36 35 33 31 30 28 26 25 24 23 23 23 21 18 16 15 14 13 12 12 11 11 11 11 10 10 9 7 6 5 5 5 5 6 6 5 7 8 8 6 5 8
7 4 3 4 3 3 6 5 2 2 3 4 5 7 10 9 9 12 17 18 22 30 32 33 35 34 34 38 40 40 37 35 37 41 43 44 44 44 43 44 44 44 44 44 44 42 42 42 41 41 41 40 40 39 38 37 35 33 31 30 28 27 26 24 22 22 23 21 19 17 16 15 14 13 13 12 12 12 11 11 11 10 8 7 6 6 5 4 5 5 5 6 8 9 8 7 7
7 6 5 5 3 3 4 4 1 1 4 4 4 5 7 6 6 9 19 25 27 33 37 38 39 40 41 44 43 40 39 39 40 41 43 44 45 46 46 46 46 45 44 44 44 43 43 42 41 41 41 41 40 39 38 37 35 33 31 30 29 28 27 25 23 23 23 22 20 19 18 16 15 14 13 13 12 12 11 11 11 10 9 8 7 7 5 4 4 5 5 6 7 9 9 8 7
6 8 8 6 5 4 3 4 4 3 4 3 4 2 6 4 6 6 14 21 21 25 30 30 32 38 39 38 38 41 43 43 43 43 44 46 48 49 49 48 47 46 47 46 45 44 44 43 41 40 40 40 40 39 38 37 36 34 32 31 31 30 29 27 26 26 25 23 22 21 19 18 17 15 13 12 12 12 11 11 11 11 10 9 8 6 5 4 4 5 6 6 7 8 9 9 8
5 9 10 8 6 4 2 3 4 4 5 3 3 2 6 4 7 9 9 11 14 16 19 23 29 32 30 30 35 40 43 44 45 46 47 48 49 49 49 49 49 49 48 47 45 43 42 42 41 40 39 39 39 39 39 38 37 36 35 35 34 34 32 31 30 28 26 24 23 21 20 19 18 16 13 12 11 11 11 11 11 11 10 9 8 7 6 6 6 6 6 6 7 7 8 9 9
6 8 8 8 7 5 3 0 1 2 4 5 1 3 5 5 5 9 9 12 16 15 15 22 29 28 29 34 37 40 42 43 44 45 46 47 47 47 49 50 51 51 50 47 45 43 41 40 40 39 39 38 37 37 38 38 37 36 36 36 37 36 35 33 30 28 26 24 22 21 21 21 20 17 15 13 11 10 11 11 12 11 10 10 10 9 7 6 6 7 7 7 7 8 9 10 10
6 5 9 8 7 7 6 4 4 4 4 6 2 4 3 4 5 7 8 12 15 16 16 20 25 28 32 36 38 41 44 45 45 45 45 47 48 49 51 52 53 52 50 48 47 44 42 40 38 38 38 38 37 36 36 37 37 36 35 36 37 37 35 33 29 27 26 25 23 22 22 21 20 19 17 14 12 11 11 11 11 11 11 11 11 10 8 7 7 8 8 8 8 9 10 10 11
5 7 10 9 9 8 7 5 5 3 3 7 4 4 2 5 6 4 5 11 13 16 19 18 22 30 35 36 38 42 45 46 47 47 47 48 50 52 52 53 52 51 50 49 48 46 44 41 39 37 37 37 37 37 36 36 36 35 34 36 38 37 36 33 30 28 27 26 25 24 23 22 21 20 18 16 15 13 12 11 11 12 12 12 12 11 10 9 9 9 9 9 9 10 10 10 11
4 5 6 6 7 7 7 6 5 3 5 10 7 5 3 6 5 3 4 8 12 14 15 15 22 33 37 38 41 43 44 44 45 47 48 48 50 51 51 50 50 51 51 49 48 47 45 44 42 40 38 37 37 37 36 36 35 35 34 35 37 37 36 34 33 31 29 27 26 25 25 23 22 21 20 18 17 16 14 13 13 13 12 12 12 12 12 11 11 10 9 9 10 10 10 10 10
5 4 2 1 1 3 4 4 4 4 9 11 9 7 6 6 5 6 6 6 9 11 12 14 19 28 35 38 41 42 42 43 45 46 47 47 47 47 48 49 50 50 50 49 48 48 47 46 44 42 40 38 37 37 37 36 36 35 35 35 36 36 36 36 35 34 31 29 28 27 26 24 23 22 21 20 19 18 17 16 15 14 14 14 14 13 13 12 12 11 10 10 11 11 11 10 9
6 5 4 1 2 1 1 0 3 7 9 8 8 8 8 8 7 6 7 7 10 12 13 14 16 24 33 38 40 42 43 44 45 45 44 43 44 45 46 48 49 50 50 50 49 49 48 47 46 44 42 41 39 37 37 37 37 36 36 35 35 35 36 36 36 35 33 31 29 27 26 25 24 23 22 21 20 19 19 18 17 16 16 15 15 14 13 13 13 12 12 12 12 12 12 11 11
6 4 5 4 3 1 3 2 3 7 7 4 7 7 7 9 9 8 9 9 11 13 15 17 20 26 35 40 42 43 44 45 44 43 43 44 46 47 48 48 49 50 50 50 50 49 49 48 47 46 44 43 41 39 38 37 37 37 37 36 36 35 36 36 36 35 34 32 30 28 27 26 25 24 24 23 21 20 20 19 18 17 17 16 15 14 13 14 14 14 14 13 13 13 13 12 11
7 6 5 6 5 4 6 4 3 5 5 3 6 6 4 4 7 12 14 13 14 16 20 25 28 32 38 42 44 44 44 45 44 43 44 46 49 50 50 50 50 50 51 51 50 50 50 49 49 48 46 44 43 42 39 38 37 37 37 37 36 36 36 36 36 35 34 33 31 30 28 27 25 24 24 23 21 20 20 19 18 17 17 16 16 15 14 14 15 15 15 14 14 13 13 13 12
7 8 7 7 6 5 4 3 4 4 4 5 4 5 5 4 5 10 13 16 20 23 27 29 31 35 38 38 39 40 41 43 43 43 46 49 51 51 51 51 51 51 52 52 52 51 51 51 50 49 47 46 45 43 41 40 38 37 37 37 37 37 37 36 36 36 35 34 32 31 29 28 26 24 23 22 21 20 20 19 18 18 18 18 17 16 15 15 16 17 16 16 14 14 14 14 13
6 7 8 8 6 5 2 4 5 3 3 5 4 4 5 4 5 6 5 11 18 22 26 26 27 30 30 28 32 36 39 41 42 43 47 49 49 49 50 51 51 52 52 53 54 54 53 52 51 50 48 47 46 44 43 41 39 37 37 37 37 37 37 36 36 35 35 34 33 32 30 28 27 25 24 22 21 21 21 19 19 18 18 19 19 18 17 16 17 18 18 17 16 15 14 14 14
4 6 8 7 5 6 4 5 2 2 4 5 3 4 4 2 7 5 3 6 10 14 17 19 22 26 25 26 32 37 40 42 42 45 48 48 47 48 51 52 52 52 53 54 55 55 55 54 52 51 49 48 47 46 44 42 40 39 38 36 36 37 37 37 36 35 34 34 34 33 31 29 28 26 25 24 22 22 21 21 21 20 19 19 20 20 19 18 18 18 19 18 17 16 16 15 15
5 5 7 5 5 5 5 5 3 4 6 4 2 5 4 4 6 4 5 7 9 11 12 14 17 19 22 28 34 39 42 44 46 48 49 46 47 49 50 51 53 54 55 55 55 54 54 54 52 51 50 49 48 46 45 43 41 40 39 37 36 36 37 37 36 34 34 34 34 33 32 30 28 27 26 25 24 23 22 22 22 22 21 21 21 21 21 20 19 19 19 19 18 18 18 17 16
5 3 7 6 3 6 6 5 5 6 5 4 3 4 4 6 6 4 7 10 10 11 11 12 12 14 21 28 34 38 41 43 45 47 46 44 46 48 49 50 52 53 54 54 54 53 53 53 53 51 49 48 47 46 45 44 43 41 39 38 37 36 36 36 35 34 33 33 33 33 32 31 29 28 27 26 25 24 23 22 22 22 22 22 23 23 22 21 21 21 20 20 20 19 19 19 18
5 2 6 5 4 6 6 4 4 4 4 3 3 2 4 6 6 7 10 11 11 11 10 10 11 16 24 29 32 35 38 41 45 46 45 45 48 50 51 52 52 52 52 52 52 52 53 53 53 52 50 47 47 46 45 45 44 43 41 39 38 37 36 36 36 35 34 33 32 32 32 31 30 29 28 28 26 25 23 22 21 21 22 23 24 24 23 23 22 22 22 22 21 21 21 20 19
1 2 3 3 3 3 3 3 3 4 4 3 3 4 5 5 5 9 12 12 12 13 12 11 13 20 27 31 33 35 37 42 46 47 47 48 50 51 52 52 51 49 49 49 50 52 52 53 52 53 51 49 48 47 46 45 44 43 42 41 39 37 36 36 36 36 35 34 32 32 31 31 30 30 29 29 28 26 25 23 22 21 21 23 24 24 24 24 24 23 23 23 22 22 22 21 20
1 2 3 3 4 2 4 5 3 4 5 4 3 5 6 5 4 8 11 11 11 13 13 12 15 24 30 32 36 37 38 43 46 48 50 50 51 52 52 50 48 47 48 49 51 52 52 52 53 52 52 51 50 48 47 46 44 44 43 41 39 37 36 36 36 37 36 35 34 33 32 31 31 31 30 30 29 27 26 25 24 22 22 23 24 24 23 24 24 24 23 23 23 23 23 22 21
Wind_Direction
160 153 159 168 167 159 160 170 190 221 215 298 248 252 229 193 262 181 172 180 134 159 143 144 150 147 138 147 142 95 92 136 137 119 158 150 151 155 153 152 152 152 149 145 145 144 149 152 150 149 145 143 140 138 134 132 131 128 125 124 124 123 122 123 123 123 123 122 122 122 122 123 124 124 123 121 119 114 113 114 114 116 113 110 108 107 106 103 98 90 85 84 92 99 97 96 97
163 158 160 161 163 159 168 191 237 31 211 301 242 195 207 303 236 202 190 192 146 155 142 140 147 145 138 139 125 90 80 92 114 117 131 144 150 155 155 154 152 152 151 148 147 148 152 152 151 151 146 142 139 137 134 131 128 125 124 123 123 122 122 122 121 121 121 120 121 122 122 122 122 121 118 115 114 113 114 117 117 115 111 110 109 107 105 102 98 93 86 84 91 100 98 95 98
163 159 162 160 165 179 184 189 262 26 240 278 257 219 128 57 222 269 192 155 136 143 137 137 137 120 126 130 120 92 93 92 128 128 134 148 152 156 158 156 153 152 153 150 149 151 153 152 152 150 145 141 138 137 132 130 128 125 124 124 123 123 123 123 122 122 121 121 121 121 119 117 116 113 111 113 112 114 118 119 117 113 111 111 108 107 105 101 97 92 86 86 91 100 101 96 97
163 164 169 165 166 199 228 168 280 234 253 256 275 274 150 192 198 350 118 136 136 139 136 134 118 100 127 125 115 95 112 127 141 140 144 155 156 157 159 157 155 154 154 153 151 152 153 152 152 147 142 141 138 136 133 132 131 128 127 126 126 126 126 126 125 124 122 121 121 118 117 116 114 114 114 115 114 114 115 113 112 112 112 110 108 107 104 100 98 93 86 87 93 101 102 98 97
163 168 175 179 164 191 222 98 301 225 246 188 261 263 201 199 186 344 119 135 139 140 140 133 100 104 116 106 105 115 140 139 147 150 150 156 157 157 159 159 158 156 156 154 153 154 153 152 150 146 142 142 140 137 135 133 132 131 130 129 129 130 130 129 127 125 124 122 121 120 119 119 119 118 115 112 109 106 103 105 110 112 113 112 109 105 102 101 100 96 88 89 97 103 105 102 100
166 168 180 210 235 225 164 259 242 236 252 176 214 264 201 168 182 91 117 127 133 139 143 130 123 122 100 78 64 122 147 146 154 156 153 155 159 159 160 161 160 158 158 156 155 154 152 151 149 146 143 143 141 138 135 133 133 132 131 132 132 133 133 131 130 128 127 125 124 123 122 122 120 116 114 111 106 103 100 103 109 112 115 116 112 106 103 103 104 99 92 94 101 104 105 102 100
166 168 186 224 261 239 205 254 239 240 254 189 189 248 184 160 170 126 110 120 117 129 142 132 133 120 87 91 76 113 145 168 162 158 155 156 159 160 161 162 161 160 161 159 155 153 152 150 148 146 144 144 143 139 135 133 134 134 133 133 133 134 135 134 132 131 128 127 125 123 120 118 117 115 113 110 107 105 105 105 109 111 114 116 112 107 104 102 104 101 95 98 104 105 103 98 97
169 171 189 222 255 174 266 252 251 229 243 218 196 221 170 165 161 127 93 119 124 126 137 139 139 113 67 126 94 117 147 172 162 157 156 156 158 160 162 163 162 162 163 162 156 153 152 150 149 146 146 146 143 139 135 136 136 136 136 135 136 136 136 136 134 132 129 126 123 119 116 114 114 113 111 109 107 107 106 105 107 108 109 110 109 108 106 103 102 101 100 104 104 105 102 97 97
183 195 169 197 26 242 265 250 253 231 240 242 231 177 150 157 139 118 95 87 118 123 134 146 148 121 107 106 102 132 151 167 160 155 157 157 159 160 163 165 164 163 164 163 159 154 151 151 150 148 149 147 143 140 136 138 139 139 139 139 141 141 139 137 134 130 129 124 120 115 114 114 112 110 107 106 105 105 104 104 104 104 106 107 108 108 106 104 103 104 107 109 106 105 100 96 97
191 218 185 107 171 297 273 256 242 240 238 202 222 171 155 156 123 102 98 87 116 115 130 150 133 124 124 104 108 142 158 165 158 155 159 158 159 162 163 166 167 165 165 164 161 155 151 153 152 150 151 148 144 140 138 140 142 142 141 141 139 140 138 135 133 130 127 122 118 115 114 113 110 108 105 104 104 104 103 102 102 101 104 106 107 106 102 102 104 106 110 111 109 106 100 96 96
184 205 236 217 191 273 239 260 260 267 247 157 98 170 170 158 122 93 91 99 121 117 132 144 121 120 119 102 113 143 160 163 159 158 160 160 160 162 163 165 168 168 166 166 162 154 152 156 154 153 153 149 145 141 141 143 143 143 140 139 136 135 133 132 132 129 125 121 120 118 116 113 110 108 105 105 105 103 103 102 102 102 104 104 103 101 101 102 102 103 106 109 110 108 101 97 97
184 136 177 260 213 217 219 262 276 272 182 185 200 171 173 154 122 109 112 112 126 124 143 153 145 132 109 97 129 144 159 163 162 159 160 161 162 162 163 164 167 168 168 167 163 156 156 160 156 155 155 150 147 143 144 144 142 141 138 136 134 132 131 132 131 127 124 123 124 120 117 115 111 110 106 106 105 106 107 106 105 104 104 102 100 97 98 98 98 100 103 109 111 110 104 101 101
204 100 131 253 208 196 250 268 277 273 242 223 182 164 163 149 130 137 122 121 136 130 163 170 155 139 98 116 139 150 160 165 164 161 162 162 163 163 164 164 165 167 169 169 164 159 161 163 159 157 158 153 149 148 146 145 143 140 137 135 134 134 133 134 132 127 126 127 125 120 118 116 114 112 109 108 106 107 108 106 105 104 104 103 103 100 99 98 98 102 102 106 108 107 105 103 103
177 143 173 253 247 229 256 240 278 272 262 221 142 151 154 142 145 144 126 124 138 144 165 169 157 132 115 131 146 160 163 167 165 162 164 164 165 164 164 164 165 168 170 170 166 162 164 164 162 160 159 156 153 151 150 147 144 140 137 137 135 135 135 134 132 129 131 131 127 123 121 119 117 115 112 110 108 109 106 105 104 102 103 104 105 104 102 100 99 100 99 101 103 104 102 102 103
171 137 207 246 316 294 242 222 225 185 238 171 146 147 132 122 158 148 138 135 117 154 147 156 161 136 153 162 167 168 166 167 165 164 165 165 166 165 166 166 167 170 171 171 168 166 166 166 164 162 162 160 157 155 152 149 147 144 140 140 137 136 134 132 130 129 133 132 130 128 125 123 122 119 115 114 112 112 110 106 104 101 100 99 100 101 101 99 96 97 98 100 101 103 100 99 100
199 235 359 254 288 256 235 216 141 154 238 157 152 147 114 99 160 148 149 143 126 150 147 157 170 218 178 175 174 168 166 166 165 165 166 165 166 166 168 169 170 172 172 172 171 170 168 169 167 164 164 161 159 156 152 151 150 148 144 142 139 136 133 131 130 129 132 130 131 131 132 131 128 126 121 119 117 115 113 107 104 101 99 98 97 97 100 99 95 94 97 100 101 104 101 99 99
209 228 294 246 242 227 229 206 169 167 200 145 156 155 125 112 157 144 145 140 139 151 157 165 180 251 175 172 170 165 164 165 164 166 166 165 166 166 168 170 171 172 174 174 173 172 171 172 170 167 166 162 160 156 153 152 151 151 148 146 143 140 137 135 133 133 135 134 135 137 141 142 136 133 127 123 123 119 115 108 106 104 104 103 100 97 97 97 95 94 97 101 101 102 105 103 101
194 202 231 238 228 218 213 197 206 182 151 151 172 168 142 146 157 146 136 128 145 153 151 159 166 172 165 165 164 163 163 165 165 167 166 165 167 167 169 171 173 173 174 175 175 175 174 175 172 169 167 162 159 155 153 153 153 153 151 150 147 145 143 140 139 138 139 138 140 143 147 148 144 141 134 132 131 124 120 116 115 112 110 108 105 102 98 98 97 97 100 103 103 103 107 107 102
197 192 213 234 209 218 265 261 258 274 162 155 175 179 159 158 157 154 146 132 155 152 132 143 126 132 151 158 162 163 164 165 168 170 168 168 170 170 171 173 175 176 176 176 177 177 177 176 174 172 167 162 159 156 155 154 154 155 155 154 151 148 145 142 143 143 143 142 144 145 146 147 148 146 143 145 142 134 127 123 125 120 115 110 108 107 103 105 105 104 106 109 112 109 109 108 102
211 219 231 241 232 265 288 267 259 280 166 155 171 186 171 163 160 159 153 144 169 167 148 147 135 141 151 157 162 164 165 167 170 172 172 171 173 174 174 175 177 178 178 177 178 179 179 178 175 173 168 163 160 158 157 156 153 154 156 156 153 150 145 141 142 143 144 145 146 144 144 146 150 150 149 151 151 149 139 130 130 126 116 109 107 108 108 115 114 112 112 116 120 119 115 111 106
184 208 217 241 229 243 265 260 262 273 193 166 166 178 169 165 165 160 149 138 194 194 178 175 162 157 157 160 165 166 167 169 172 175 175 175 176 178 178 178 179 179 179 179 179 181 180 179 177 174 171 166 163 162 161 158 154 153 154 154 152 149 146 145 143 143 144 146 148 145 146 148 150 147 144 149 153 157 148 131 124 122 120 114 110 113 116 124 125 123 120 121 126 128 126 119 111
182 225 234 248 265 244 264 283 286 276 199 165 158 172 168 163 169 166 160 158 211 201 190 186 175 167 164 165 166 168 170 172 175 178 178 178 179 180 182 181 182 182 181 182 182 182 182 181 179 176 173 169 167 167 164 161 159 155 153 151 148 146 149 150 148 150 149 149 152 151 151 151 148 141 140 148 151 152 148 134 122 120 128 126 120 121 130 141 145 143 136 133 132 133 133 125 116
221 243 239 243 251 260 268 284 303 298 191 170 168 178 163 158 179 179 180 188 205 200 189 185 179 173 169 168 168 170 173 176 179 181 181 182 182 183 184 184 184 184 184 184 184 185 184 183 182 179 177 174 172 172 170 166 163 159 156 151 145 145 151 155 155 156 156 156 156 155 156 157 153 144 142 148 147 148 146 141 131 128 139 140 132 129 139 149 160 168 164 161 153 144 140 133 127
234 256 247 244 244 250 260 271 288 286 249 210 181 174 166 169 184 182 194 201 197 191 183 182 177 173 171 170 171 174 177 180 181 183 185 184 185 187 187 187 187 186 187 187 186 187 186 185 184 182 180 178 176 176 176 173 169 164 161 155 150 148 150 156 160 161 163 164 162 161 160 159 155 146 143 146 147 149 148 146 141 140 151 155 149 142 143 146 161 181 184 183 180 170 160 151 140
229 243 246 252 250 255 269 280 283 273 259 234 182 184 189 185 175 179 202 200 181 178 176 177 174 172 173 173 174 176 178 181 182 184 187 187 187 189 189 190 190 190 191 189 189 189 188 187 186 185 184 182 181 181 181 179 176 172 168 162 157 154 151 155 162 166 168 170 170 167 165 158 153 148 143 142 145 148 148 150 148 152 163 167 160 154 153 151 156 175 186 193 192 189 186 178 163
218 233 248 268 264 269 284 284 280 270 251 225 187 219 215 192 174 189 207 194 178 176 172 174 174 173 175 176 177 178 180 183 185 187 188 189 190 192 193 193 194 194 194 193 192 191 189 189 189 188 187 186 185 185 186 185 185 182 177 168 164 161 157 159 165 169 173 177 178 172 168 161 155 151 145 141 145 145 146 149 151 163 179 179 164 154 158 161 159 172 184 196 201 200 201 198 190
223 238 255 264 266 271 276 274 275 272 248 221 201 227 232 199 186 211 198 185 180 172 169 174 175 175 177 179 180 181 183 185 187 188 188 190 192 195 195 196 197 197 197 197 195 193 191 191 192 192 191 191 190 190 190 189 192 191 186 179 173 168 167 170 170 172 178 182 183 176 170 164 159 154 150 150 152 149 150 150 149 160 177 179 173 161 161 172 171 176 183 187 198 205 208 210 205
255 265 264 261 265 266 262 261 265 265 249 225 208 214 240 194 199 212 174 176 180 172 168 174 176 178 180 180 182 183 186 187 188 189 191 193 195 197 197 198 199 198 199 199 197 196 195 194 195 195 195 195 194 195 194 193 197 198 195 191 184 179 180 181 179 180 183 184 187 182 173 167 164 159 157 161 160 157 160 159 153 154 159 166 170 163 159 168 169 175 192 189 189 202 213 214 208
259 272 275 275 281 274 251 243 252 244 242 225 202 211 241 188 211 197 170 171 175 171 169 174 177 179 180 182 184 186 188 188 190 193 195 196 197 198 199 200 200 200 201 201 201 200 198 197 198 199 199 199 198 198 198 198 199 202 202 200 197 194 193 192 189 190 189 188 190 187 182 176 170 165 164 166 165 163 164 162 159 160 162 165 170 161 142 154 171 185 201 205 202 206 214 214 209
249 250 255 279 304 292 247 226 234 220 237 211 177 207 237 207 212 177 168 169 167 167 169 173 177 179 181 183 185 188 189 191 194 196 198 199 199 201 201 202 202 203 203 203 204 202 201 200 200 202 202 202 202 201 202 202 202 204 206 206 207 208 207 202 197 198 197 194 192 190 188 183 176 170 167 169 171 173 171 164 160 163 164 155 169 164 135 132 157 181 196 212 221 220 220 211 205
222 202 225 249 248 286 246 194 196 203 235 190 167 234 235 215 202 171 168 170 166 165 170 174 177 179 182 184 187 190 192 194 198 199 200 201 201 202 203 203 204 205 205 205 205 205 204 203 203 205 204 205 204 204 204 205 206 207 209 210 212 216 216 211 206 203 203 200 197 194 188 183 180 175 174 176 176 178 180 174 164 164 165 148 150 157 136 121 136 165 186 204 215 219 218 202 199
165 171 221 220 192 263 269 198 182 196 225 179 169 245 240 224 185 172 171 172 170 168 173 177 178 181 183 186 189 192 194 197 200 201 202 203 203 204 205 205 206 207 208 208 208 207 207 206 206 207 207 207 207 206 207 207 209 211 213 214 215 220 221 217 212 207 204 204 202 198 191 184 182 182 185 187 184 183 181 180 174 171 180 175 166 168 157 144 149 170 182 191 206 209 208 198 199
309 189 222 199 175 243 273 261 207 198 188 177 184 212 239 231 174 173 174 173 172 170 174 180 180 183 185 187 190 192 195 198 201 203 204 204 205 206 206 207 208 209 209 210 210 210 209 208 208 209 210 210 209 209 210 210 212 215 217 218 217 221 223 220 217 210 206 207 206 202 198 190 184 186 192 194 193 188 180 183 184 177 185 191 192 192 188 183 169 176 189 194 203 205 204 202 202
272 214 220 216 182 218 245 292 247 196 173 189 203 215 231 224 169 171 177 176 173 173 178 182 183 185 186 188 191 193 195 198 201 204 204 205 206 207 208 209 210 211 212 213 213 212 211 211 211 212 212 212 213 212 212 213 214 216 219 220 220 221 224 223 219 215 211 210 208 205 205 200 192 193 198 202 201 196 187 192 198 191 192 196 201 200 195 200 189 183 192 195 194 195 201 212 213
207 193 190 223 215 224 215 249 258 174 181 198 200 221 231 226 168 173 180 179 177 180 183 183 184 186 187 189 191 195 197 200 203 204 204 205 206 207 209 210 211 212 214 215 216 216 215 215 214 214 215 215 215 216 216 216 215 217 218 219 220 220 223 222 219 218 215 212 209 207 209 207 203 203 206 210 211 209 204 202 207 207 206 209 213 212 204 205 199 186 193 195 186 180 190 216 211
167 179 175 185 211 248 234 234 247 153 181 215 201 217 224 203 178 180 182 183 184 185 183 183 186 187 188 191 194 197 199 203 205 204 204 205 206 208 209 211 213 213 215 216 217 218 218 218 217 217 217 217 218 218 218 218 217 217 217 218 219 219 220 221 219 218 216 214 209 208 211 210 208 210 212 215 217 217 217 217 218 217 220 224 224 220 209 205 198 185 194 198 189 180 180 195 187
150 161 191 195 205 252 253 245 260 160 161 234 216 218 224 200 187 187 182 184 187 184 183 185 187 188 190 193 196 199 203 206 206 204 205 205 207 209 210 212 213 214 215 217 217 218 219 219 219 219 219 219 220 219 219 219 218 217 217 217 218 218 218 220 219 216 216 214 209 209 212 212 212 213 214 217 219 219 220 225 227 223 224 230 229 218 207 206 200 189 191 196 195 190 183 177 174
265 230 224 248 228 246 262 248 258 171 159 254 234 224 234 209 187 189 181 183 189 187 187 189 190 191 193 195 198 201 203 204 204 204 205 206 207 209 210 211 213 214 215 216 218 219 220 220 220 220 219 220 221 220 220 220 220 220 220 220 219 219 219 221 221 217 215 213 209 210 213 215 217 218 218 219 220 221 220 224 229 227 226 229 229 224 216 209 204 199 194 193 196 199 194 183 177
249 255 242 262 240 252 276 259 247 176 183 259 237 220 239 221 191 188 181 186 196 194 192 192 191 191 194 198 200 200 201 201 202 204 205 205 207 208 210 211 213 215 216 217 218 219 220 221 221 221 221 221 221 221 221 221 221 221 222 223 221 220 222 223 223 219 216 214 212 212 214 217 220 222 223 223 221 221 221 224 229 230 229 229 231 234 233 223 213 210 209 205 202 204 205 198 189
225 232 234 242 216 200 264 276 299 221 215 235 207 214 251 230 191 195 193 194 198 198 198 198 194 193 196 200 199 198 198 200 201 204 204 204 206 207 209 211 213 214 216 217 218 219 220 220 220 221 221 222 222 222 222 221 222 222 223 224 224 223 224 225 224 220 216 215 214 215 216 216 218 221 223 225 222 222 223 224 227 231 231 232 234 237 239 241 234 220 217 223 217 212 212 210 203
220 221 227 226 209 206 244 300 331 330 285 237 158 226 287 228 189 208 204 201 203 203 202 204 202 201 201 200 199 199 200 201 201 202 204 204 205 207 209 211 211 213 215 217 218 219 219 220 220 221 222 223 223 224 223 222 222 223 223 224 224 223 224 224 223 220 217 215 215 216 216 216 216 217 220 225 225 224 226 227 228 231 231 233 235 241 242 237 235 226 217 223 226 221 217 217 218
238 226 222 213 202 205 245 323 342 351 310 272 149 217 283 260 205 207 196 198 209 206 202 208 209 206 202 200 201 203 204 204 204 204 205 205 205 206 208 210 211 213 215 217 218 219 220 221 221 222 223 224 224 224 224 223 223 223 222 222 221 220 221 222 222 221 218 215 215 216 217 216 215 216 218 222 225 226 228 229 229 230 231 234 236 241 241 235 234 230 223 223 226 224 221 221 225
245 221 199 195 182 175 173 95 278 239 259 269 153 185 261 303 245 215 192 191 203 201 202 210 210 204 200 202 203 203 205 205 206 206 206 206 206 206 208 210 212 214 216 217 218 219 220 221 221 222 223 223 224 224 223 223 223 223 223 222 221 220 221 222 222 222 220 218 217 218 218 218 217 216 216 218 223 225 228 230 229 230 232 234 235 237 239 240 240 233 227 228 225 223 225 226 226
238 174 150 175 184 188 187 175 219 238 269 274 222 152 237 287 259 225 191 197 206 201 205 211 207 204 204 205 205 204 205 205 205 206 206 206 207 207 209 211 213 215 215 215 217 218 219 219 220 221 222 223 223 223 223 222 222 223 222 221 221 222 223 223 223 222 222 222 221 221 221 220 219 218 216 216 220 224 226 228 229 230 232 233 235 236 237 241 241 235 232 230 226 224 225 228 229
229 152 149 172 185 196 191 184 222 245 293 271 235 148 226 270 266 253 184 201 216 208 209 211 204 205 207 207 207 207 208 207 205 206 206 207 208 210 211 212 213 214 214 216 217 218 218 219 220 221 221 223 223 223 223 222 223 223 221 220 219 221 224 225 225 224 224 225 224 225 224 222 221 220 217 216 217 220 224 227 229 232 232 233 235 235 236 239 239 237 235 233 232 230 230 232 233
202 153 157 156 173 190 184 186 203 210 244 251 233 163 210 266 261 247 191 201 218 214 213 213 206 206 208 207 208 209 209 209 208 208 208 208 209 211 212 212 213 214 214 216 217 217 218 218 220 220 221 222 223 223 223 223 223 223 222 220 219 220 222 225 226 227 226 227 227 227 227 225 221 220 219 217 216 218 220 224 228 230 231 232 233 233 233 237 240 238 237 236 233 233 236 238 236
165 153 193 78 140 159 169 178 156 201 242 241 225 178 187 258 244 211 213 198 199 209 216 216 211 210 210 210 210 210 209 209 209 210 210 210 210 210 211 212 213 214 214 214 215 217 217 218 219 220 221 222 223 224 224 224 224 224 223 222 221 221 222 224 226 227 227 228 228 227 228 227 224 222 220 220 218 218 219 221 225 228 229 229 229 230 231 234 239 239 240 239 235 235 237 236 234
180 170 174 216 305 57 122 67 147 214 241 231 213 182 182 237 244 213 221 207 192 204 213 210 209 211 211 212 212 210 210 210 210 209 209 209 209 209 210 211 213 213 213 213 214 215 217 218 219 220 221 222 223 224 225 225 225 225 225 224 223 223 224 225 227 228 228 228 228 228 228 227 226 225 223 222 220 219 220 221 224 227 229 229 227 228 231 233 237 239 241 242 240 238 237 235 232
195 171 150 181 237 205 206 225 191 226 248 221 183 169 189 234 248 232 224 221 208 208 213 209 208 209 209 210 211 211 210 210 210 208 207 208 209 209 209 210 211 211 212 213 213 214 215 217 219 220 221 222 223 224 224 225 225 225 225 225 226 225 226 228 229 230 230 229 229 229 229 228 227 226 224 223 220 220 222 222 225 229 231 232 230 229 231 233 237 240 242 244 243 240 237 236 235
190 179 167 185 192 205 218 226 251 246 263 245 161 156 216 241 249 230 217 222 223 218 219 216 213 211 210 210 210 209 210 210 209 207 206 208 210 210 209 210 211 211 212 212 213 214 215 216 218 220 222 222 223 223 224 225 225 225 225 226 227 227 228 229 230 231 231 231 231 231 231 231 230 230 228 227 225 223 224 225 227 231 234 236 235 232 231 233 237 241 243 245 244 241 238 238 239
195 180 174 198 192 190 199 191 226 238 260 256 174 167 209 189 222 227 207 213 220 223 227 223 219 217 214 211 209 208 209 210 209 208 208 210 210 210 210 210 211 211 212 212 213 214 214 216 218 220 222 222 222 223 224 224 224 224 225 226 228 229 229 230 231 232 232 232 232 232 233 234 234 235 235 234 233 230 229 228 229 232 234 238 238 236 233 233 236 241 243 244 243 241 240 239 241
201 172 181 210 192 157 179 200 202 199 247 249 208 203 220 205 256 263 208 208 213 220 228 225 222 220 213 207 206 207 210 210 210 209 211 212 210 210 211 211 211 211 212 212 212 213 214 216 218 220 222 222 223 223 224 224 224 225 225 226 227 229 230 231 231 232 233 233 233 234 234 235 237 239 240 240 239 237 235 233 233 234 236 238 239 239 237 235 237 241 244 245 244 244 245 244 245
174 174 198 198 148 146 209 238 201 153 231 241 211 231 256 260 271 272 185 201 211 218 226 224 220 214 203 199 202 205 208 209 210 211 213 212 210 210 212 211 211 211 212 213 213 213 214 215 217 219 221 222 223 224 224 224 224 225 226 226 227 228 229 231 231 232 232 232 234 234 235 236 237 239 241 242 242 241 240 239 238 238 238 239 239 239 240 238 238 241 245 247 247 247 250 250 250
166 186 194 149 112 160 201 232 225 208 236 265 240 224 215 200 250 259 161 193 222 220 221 226 220 206 196 200 204 205 206 207 210 213 214 212 210 211 212 212 212 212 213 213 213 213 213 215 218 219 220 221 223 224 224 225 225 225 226 226 227 227 229 231 231 232 233 234 234 234 235 235 235 237 239 241 243 243 243 242 243 243 241 239 238 239 240 240 239 240 244 249 250 249 250 252 252
208 186 167 149 158 188 188 209 217 214 236 282 286 246 218 205 227 218 182 199 220 220 220 225 218 198 197 205 207 206 205 205 208 212 212 210 210 212 213 213 213 213 214 213 213 213 212 214 217 219 222 223 224 224 224 225 225 226 227 227 228 228 228 230 231 232 233 234 234 234 234 234 234 235 237 239 240 241 242 243 242 242 241 239 237 237 239 240 240 241 243 247 250 250 251 252 253
239 207 166 165 189 198 195 190 186 201 226 260 273 270 251 233 210 184 193 203 208 211 214 219 216 204 202 205 207 206 203 203 206 210 211 210 211 213 214 214 214 213 213 212 212 212 212 213 215 217 220 222 224 225 225 225 226 226 227 228 228 229 228 229 230 231 233 233 234 234 234 234 234 234 235 237 238 238 239 240 239 240 239 236 236 236 237 238 239 241 242 245 248 250 252 253 254
293 251 203 202 212 199 205 205 173 177 194 217 253 259 257 251 206 183 198 205 202 202 204 210 216 211 207 207 208 206 203 204 207 208 210 211 212 213 214 215 214 212 211 211 211 212 212 213 213 215 218 219 222 224 225 226 226 226 227 228 229 229 229 229 230 231 232 233 234 235 235 235 236 236 236 237 237 236 236 236 237 238 238 236 235 236 236 236 238 241 242 244 246 248 250 252 254
288 256 272 260 252 190 191 225 215 188 199 191 210 253 262 253 208 191 202 206 205 201 198 206 214 212 210 209 209 209 207 207 208 208 210 212 212 212 212 211 210 209 210 211 211 211 211 212 213 214 215 218 221 222 224 226 227 227 228 229 230 230 230 230 231 231 232 233 234 235 235 237 237 237 237 237 237 236 236 236 236 238 238 237 236 237 236 235 237 241 243 245 246 248 250 252 253